RH
6 4 3 3 3 2 2 21 51 68 66 59 81 86 84 68 61 63 60 54 54 60 51 48 37 39 42 63 51 48 47 57 71 45 38 44 52 57 61 69 64 78 71 62
9 7 4 4 3 4 7 54 65 59 64 93 93 76 67 71 76 71 81 82 81 79 79 64 46 55 57 68 70 65 49 62 76 49 46 49 49 52 54 59 65 72 73 56
43 12 7 5 4 4 10 59 87 42 52 75 89 96 84 83 64 65 57 65 64 72 83 80 84 78 71 60 61 65 62 66 54 61 39 44 51 50 53 60 82 58 56 42
93 62 33 8 5 6 12 38 91 90 96 76 92 74 77 84 79 63 48 71 74 80 88 71 76 67 67 54 54 71 78 90 68 66 64 63 61 60 56 62 52 59 44 39
94 86 85 44 9 10 8 53 71 77 81 79 77 68 84 82 74 67 60 81 78 76 89 67 80 82 74 70 70 81 75 92 88 84 68 69 72 61 59 58 54 54 47 48
93 86 85 93 77 36 55 60 79 97 77 82 72 83 79 70 76 63 66 76 80 82 69 70 66 64 65 65 68 65 68 67 66 77 63 72 78 61 56 48 44 46 48 37
91 98 93 98 93 88 86 90 79 77 71 76 60 73 69 76 85 83 78 73 80 65 70 62 50 57 70 72 75 70 76 65 67 69 69 86 47 39 42 47 42 42 47 42
99 87 91 97 93 91 88 100 95 80 96 80 69 70 85 78 76 82 70 65 64 66 59 67 64 54 58 57 68 68 71 78 74 80 71 54 48 41 39 47 43 60 61 56
88 92 92 94 88 94 100 100 100 96 97 77 63 82 78 92 95 91 77 56 51 60 72 67 82 63 63 56 49 32 86 80 94 76 85 81 46 46 45 43 66 67 71 73
98 99 98 92 94 95 94 94 94 97 98 82 80 88 85 86 91 92 82 78 79 66 73 74 72 72 58 72 60 77 74 76 87 90 93 76 96 73 53 65 79 64 64 63
99 95 97 95 89 96 98 94 100 100 98 94 91 86 93 96 96 92 73 84 69 90 97 95 78 90 73 86 73 82 88 82 79 78 78 73 68 68 90 96 89 82 63 64
99 90 88 87 82 84 87 98 86 99 100 95 94 95 93 95 85 89 90 84 81 71 99 96 98 84 84 66 76 47 72 61 77 64 58 42 40 48 70 82 94 84 79 70
92 96 88 67 88 91 93 100 96 100 98 84 88 91 48 59 65 60 98 86 89 87 77 78 86 91 72 90 78 61 58 50 63 65 50 44 49 60 54 43 66 58 66 66
97 87 78 84 86 59 68 87 72 100 94 94 69 65 60 52 56 59 66 67 72 76 75 86 93 92 67 81 72 70 57 57 64 64 51 47 40 36 34 43 46 45 52 69
97 90 78 63 77 82 92 91 59 65 99 86 76 81 45 50 45 49 62 74 80 100 93 94 91 77 79 74 69 81 61 64 70 66 42 42 42 41 41 43 46 49 56 66
88 89 89 90 93 94 95 87 49 49 76 98 95 56 64 52 50 62 63 66 79 94 94 88 87 80 76 93 85 52 49 48 49 52 48 48 48 48 47 49 48 49 57 61
85 87 92 89 90 95 100 84 60 68 95 97 96 95 68 53 50 48 48 48 64 82 95 92 84 79 80 93 92 53 47 47 50 50 51 52 52 52 49 47 48 50 52 56
80 86 89 76 66 74 63 38 49 62 92 85 100 94 62 45 46 55 55 63 66 78 89 84 86 85 96 95 61 53 65 81 66 55 55 56 57 54 54 51 50 50 53 59
83 74 66 48 38 47 50 60 69 79 90 97 97 96 88 63 61 67 66 73 98 72 96 94 88 91 93 78 96 95 96 97 97 95 68 58 61 58 57 57 56 55 58 54
79 63 48 48 57 59 61 69 81 88 97 98 97 96 95 72 76 85 91 81 96 98 88 83 97 87 91 80 72 77 81 82 89 97 90 82 60 58 56 56 55 56 53 54
94 84 68 59 72 92 90 91 99 87 96 93 96 96 97 72 94 82 74 96 97 96 86 95 96 96 74 74 81 87 91 92 91 90 84 85 91 78 59 55 53 52 53 52
96 96 94 98 99 87 93 100 91 97 97 96 98 88 91 72 67 98 87 96 95 95 84 97 96 85 75 84 91 95 99 99 98 95 95 72 70 73 82 67 59 55 52 55
87 93 98 95 82 98 99 100 93 100 92 93 94 94 74 73 79 100 100 99 94 93 96 95 88 68 86 94 97 99 96 96 100 100 98 82 70 68 80 78 63 57 54 64
99 98 93 90 90 99 91 92 96 84 85 92 94 91 80 75 100 96 97 85 96 94 93 88 71 89 97 99 100 100 96 97 97 96 96 92 90 90 83 67 66 71 90 100
97 95 96 97 63 66 75 84 94 96 95 93 92 94 100 96 96 95 95 92 94 90 92 90 94 98 98 97 97 97 98 98 98 98 99 100 100 94 85 91 99 100 99 97
96 99 99 86 93 82 85 96 95 92 93 87 93 97 96 94 96 95 96 94 96 92 94 96 97 97 96 97 97 97 97 98 97 97 96 97 100 100 100 98 100 98 100 97
95 94 90 92 96 96 96 96 95 96 97 97 95 96 95 95 95 95 94 95 94 96 97 96 96 96 96 96 96 96 96 96 96 96 96 96 96 96 97 96 97 97 95 91
Wind_Speed
26 27 27 29 32 33 28 7 3 15 6 2 3 2 6 7 9 17 6 6 4 4 5 4 3 4 4 22 9 5 3 3 4 10 1 3 3 6 5 4 4 3 2 10
25 27 28 29 30 30 28 8 7 13 5 4 4 8 5 7 10 8 8 9 7 6 5 5 1 6 2 31 12 7 5 3 4 8 4 1 2 3 4 2 1 6 3 9
26 28 29 29 28 25 18 7 4 10 15 11 4 6 5 7 12 6 10 6 7 7 6 4 7 6 5 29 17 26 4 4 7 9 7 1 5 4 5 6 3 4 12 23
24 29 30 30 29 25 11 8 5 6 4 6 6 3 6 6 9 11 15 3 9 6 5 8 4 4 12 12 21 10 4 5 4 5 8 8 13 14 12 12 18 11 24 22
22 24 27 29 28 27 24 6 6 6 3 6 7 6 6 6 6 3 5 4 12 9 5 6 16 10 8 10 5 8 6 4 8 17 13 16 22 20 16 21 17 16 22 27
20 20 23 23 25 27 14 12 6 3 5 5 3 1 3 7 9 6 6 15 15 10 12 14 27 30 29 27 17 13 9 6 6 19 10 11 15 17 21 13 13 9 12 16
17 18 19 21 20 20 18 16 7 5 2 3 3 8 13 8 5 9 15 22 5 7 25 35 31 29 32 32 27 28 15 12 7 14 9 17 9 2 4 9 15 5 10 15
16 18 18 15 17 16 14 12 8 3 2 7 13 5 2 15 17 7 9 14 13 21 21 6 8 4 4 5 6 10 20 12 6 7 9 17 26 16 17 8 14 16 14 18
16 16 16 16 13 12 14 13 10 9 3 4 7 5 12 4 3 5 7 13 22 11 5 4 4 4 4 5 12 5 5 15 9 6 10 7 1 2 17 1 3 14 17 16
17 17 18 18 16 14 13 15 13 13 11 15 10 8 7 9 8 5 12 11 6 18 3 4 5 8 3 6 6 5 3 3 9 11 11 8 8 20 17 10 10 31 23 24
18 20 18 18 17 16 15 18 19 19 18 21 26 28 23 16 15 8 12 9 5 3 4 3 3 5 4 6 11 3 5 6 4 4 5 13 21 11 8 11 31 37 33 27
19 19 16 18 20 20 20 23 23 24 25 31 36 37 40 36 37 32 18 13 12 6 1 2 1 6 4 11 19 7 10 6 4 7 12 35 55 23 21 22 26 29 34 39
16 18 21 22 21 20 20 22 23 23 22 31 22 20 28 29 29 26 27 30 27 20 28 15 8 13 6 11 12 18 8 21 14 16 20 27 37 36 27 30 18 25 33 34
19 21 22 22 23 25 22 23 26 26 16 12 30 24 21 28 27 29 35 41 39 34 27 22 9 11 10 11 13 15 16 15 18 22 28 31 43 41 38 18 27 32 32 30
24 21 24 26 23 21 24 28 33 33 24 15 30 31 45 31 27 28 31 34 39 36 22 10 10 20 11 14 13 17 23 23 14 20 37 24 35 42 43 38 32 32 32 33
25 24 25 24 22 24 26 20 11 5 6 9 4 20 20 42 29 30 30 32 38 36 17 11 20 37 18 8 15 31 40 39 43 36 48 40 47 46 48 42 40 38 32 35
25 25 26 25 25 24 23 17 22 28 29 13 5 6 4 6 12 24 30 33 28 28 22 15 27 28 21 8 18 38 40 36 41 43 41 40 45 40 42 40 39 40 34 34
26 26 26 28 30 32 36 31 18 15 18 12 3 5 8 13 22 12 17 26 26 22 15 10 8 8 8 6 19 26 24 27 32 36 39 45 51 43 38 35 34 36 37 35
24 27 28 32 19 8 8 17 23 28 20 5 4 2 6 7 16 20 20 7 3 7 4 4 7 4 6 6 18 26 30 26 33 36 29 31 34 41 42 39 38 34 33 32
25 27 12 6 3 14 30 18 3 2 4 8 3 1 3 7 11 6 7 6 3 2 5 6 4 3 13 23 29 28 32 34 31 29 30 21 26 32 35 36 36 34 35 31
14 6 7 18 25 26 4 4 2 2 3 4 4 7 4 11 5 5 6 3 3 3 4 4 2 1 14 37 36 34 34 34 34 28 34 33 29 28 31 31 29 27 28 25
18 17 26 25 4 3 1 3 6 1 3 5 4 8 8 11 7 4 6 3 2 6 2 3 1 7 37 40 42 41 39 40 41 37 36 35 29 26 23 28 28 25 19 19
19 6 5 4 2 1 3 4 4 3 5 5 9 6 7 7 7 6 3 4 5 10 3 4 2 29 41 42 42 43 43 43 42 40 34 29 27 21 19 18 18 15 14 12
5 4 4 4 4 4 4 3 3 6 7 10 16 8 6 5 3 2 4 4 3 5 7 5 10 36 40 40 42 43 45 43 43 42 28 21 16 9 7 8 11 12 12 12
4 3 4 6 9 8 7 12 9 6 10 15 11 10 6 3 4 3 4 5 4 4 4 6 27 37 37 39 41 42 41 42 44 39 12 12 15 19 20 15 12 12 14 15
4 6 4 6 4 12 7 7 7 12 10 13 7 4 3 4 3 2 4 3 4 4 6 21 28 33 36 38 39 40 41 42 45 46 41 35 35 33 33 29 28 28 29 35
4 6 9 16 20 6 12 12 13 11 10 2 4 3 2 3 2 3 3 3 4 15 18 21 25 29 33 37 39 43 44 46 47 47 47 44 41 40 43 44 39 38 37 34
Wind_Direction
4 359 360 1 357 354 2 13 40 8 356 40 20 24 314 339 339 6 337 349 358 339 328 301 277 253 24 4 334 322 299 190 260 236 293 174 173 197 167 149 244 243 213 269
359 358 358 3 5 1 359 8 347 13 34 48 359 327 333 11 17 22 5 358 17 4 318 319 342 334 62 14 10 3 330 280 326 326 18 30 211 204 198 134 110 205 222 268
1 3 1 5 9 10 5 13 16 19 53 47 26 354 345 340 15 63 10 18 35 353 346 8 315 325 329 337 341 330 267 234 214 242 255 344 253 205 200 192 212 265 247 280
3 4 4 5 10 16 16 38 57 13 354 359 348 338 0 348 8 354 5 62 33 2 298 308 293 345 329 319 312 330 36 275 262 283 302 294 278 274 265 241 250 243 269 272
2 0 4 6 8 17 42 47 14 14 349 334 348 356 15 49 347 311 341 23 339 325 254 277 302 320 319 271 311 5 340 283 332 299 282 272 274 270 259 256 259 250 251 264
352 358 356 7 10 14 46 42 21 12 340 351 342 19 30 330 338 287 293 336 321 303 285 305 296 278 266 253 259 259 257 271 289 277 298 292 285 248 236 247 240 228 248 257
346 348 353 357 10 12 23 26 30 18 333 326 301 306 311 304 309 275 294 307 280 275 309 310 304 274 256 250 250 237 246 236 236 265 287 273 261 227 295 254 259 276 283 285
339 335 346 351 351 360 359 4 9 11 268 252 296 287 273 309 301 279 284 299 305 315 317 305 307 300 315 294 232 231 223 230 253 239 239 273 289 302 292 246 269 14 356 345
321 323 324 328 330 336 330 331 331 311 246 242 258 280 301 294 272 296 243 294 304 320 333 324 288 300 350 290 323 312 171 208 227 241 256 256 271 351 341 286 240 16 1 345
328 327 324 325 324 320 313 309 312 301 271 277 262 227 268 282 274 268 278 276 263 289 254 261 256 257 232 269 257 338 336 326 248 256 252 254 359 330 325 268 331 328 335 336
320 317 319 315 321 326 318 305 300 293 276 278 270 273 261 259 248 259 275 304 284 223 227 243 240 255 230 283 252 293 311 307 306 304 290 269 11 12 9 333 323 317 310 326
314 314 326 325 317 310 310 297 302 301 284 272 279 277 274 267 269 268 260 249 262 257 211 261 272 280 251 257 273 310 278 218 238 273 275 299 295 290 288 292 298 307 307 320
310 316 315 310 303 305 303 306 301 306 294 295 279 262 300 288 276 278 248 256 248 242 247 265 252 254 255 261 258 266 249 257 253 267 264 264 275 287 284 292 282 291 295 303
307 310 308 305 304 307 303 300 296 293 282 277 287 293 280 289 282 270 261 266 267 260 259 255 261 266 246 263 270 273 257 265 263 266 264 268 275 275 281 249 283 285 291 297
307 304 306 308 308 308 303 297 288 284 259 272 288 291 297 295 286 280 273 259 257 257 256 249 255 254 262 256 266 259 249 247 243 254 263 260 271 274 277 274 278 284 287 289
305 303 306 310 304 304 308 310 314 292 272 263 301 287 282 294 287 279 269 263 252 245 247 251 252 249 238 255 256 263 260 256 252 256 265 265 264 271 274 274 279 276 277 284
306 306 306 303 302 299 285 263 279 287 295 269 259 272 254 280 273 287 287 283 258 246 246 242 252 251 242 259 266 268 276 272 271 265 264 265 264 261 268 269 269 276 276 280
307 307 306 304 302 295 288 294 290 282 272 271 280 275 318 315 299 291 293 286 279 253 244 251 248 256 205 245 254 284 301 310 294 277 268 260 266 269 263 268 271 273 277 276
308 306 309 307 300 285 292 293 289 276 256 251 245 253 293 309 304 303 298 249 260 259 223 213 206 188 225 337 347 334 324 314 310 319 290 267 260 264 263 264 265 264 260 270
310 311 313 284 266 294 302 301 267 249 195 228 246 69 252 281 302 293 305 265 247 259 234 172 219 233 23 359 333 320 313 312 314 312 308 308 274 264 264 262 261 257 263 267
320 296 270 290 299 303 270 284 305 252 291 233 228 230 296 307 273 278 251 269 265 273 260 183 236 121 347 340 330 324 317 310 306 297 292 289 281 275 266 266 265 268 268 270
294 285 288 292 267 264 321 253 303 193 260 345 5 332 300 297 268 266 257 243 262 257 186 239 297 358 344 336 331 327 323 318 311 304 294 290 280 269 272 267 262 264 264 263
309 283 263 325 249 281 188 270 306 310 340 359 344 326 287 285 258 262 273 280 250 314 348 13 79 344 337 336 332 329 329 324 317 306 295 281 267 260 262 271 259 253 253 243
261 243 259 170 294 246 195 192 216 286 271 306 327 296 261 276 289 255 259 266 334 14 6 347 336 333 333 336 339 339 335 335 331 319 289 260 247 243 230 233 223 195 183 187
253 224 241 223 242 261 271 277 272 271 304 326 315 285 244 257 271 252 276 349 33 28 357 312 328 331 339 345 349 350 353 358 4 20 83 117 148 147 129 126 127 137 152 158
231 234 275 262 294 285 296 294 289 315 306 306 262 249 267 253 242 332 17 26 21 336 328 333 336 345 353 359 3 7 14 22 31 44 60 79 102 115 114 116 116 122 129 127
239 256 261 274 279 303 341 312 304 302 303 228 235 244 257 333 18 46 24 15 307 304 341 347 2 3 11 21 23 27 30 37 41 49 58 66 81 96 104 103 106 107 104 105